STARLINK-1695, 46329

Orbit data source: Space-Track

STARLINK-1695, 46329 is a payload satellite owned by SpaceX/Seattle (US) in LEO that was launched on Thu, 03 Sep 2020 UTC via an FALCON 9 launch vehicle from the Air Force Eastern Test Range (AFETR). Payload-class satellites include a variety of spacecraft equipped with specific instruments for various scientific and technological missions. These include communications satellites like Starlink; space stations such as the ISS; scientific satellites like the Hubble; Earth observation satellites from companies like Planet Labs, Umbra, and HawkEye 360; GPS; miniature CubeSats for education and research; and military/defense satellites.

Loading next visibility...
Identifier
46329, 2020-062E
Orbit
LEO
Country
Flag of USUS
Related business
Manufacturer
SpaceX/Seattle
Mission
Operational Commercial Communications
Bus & Motor
STARLINK, Unknown motor
Mass
260 kg wet, ~248 kg dry
Launch date (UTC)
2020-09-03 (5 years ago)
Launch vehicle
FALCON 9
Launch site
Air Force Eastern Test Range (AFETR)
Object type
Payload
Rocket body
Debris
Shape & HBR
Box + 1 Pan, 4.4 m
Radar Cross Section
13.562 m², Large (>1 m²)

Expand to show TLE details & history
Last TLE update: 1 day ago

TLE from 1 day ago
0 STARLINK-1695
1 46329U 20062E   25259.72401091  .00001604  00000-0  12655-3 0  9994
2 46329  53.0550  57.5792 0001349  92.4201 267.6943 15.06394900278364
Epoch: 2025-09-16T17:22Z
TLE epoch observation values (Epoch: 2025-09-16T17:22:34.542Z)
Latitude
0.00002°
Longitude
161.02508°
Altitude
548.144 km
Speed
7.589 km/s
True Right ascension
03h 50m 19s
True Declination
0° 00' 00"
Sunlit
Object was in full shadow at epoch
Visualization orbit readout
Latitude
Unknown
Longitude
Unknown
Altitude
Unknown
Speed
Unknown
Apparent Right ascension
Unknown
Apparent Declination
Unknown
Sunlit
N/A
Visualization observer readout
Local Sidereal Time
15:38:39
Azimuth
Unknown
Elevation
Unknown
Doppler factor
Unknown
Orbital elements
Apogee altitude
548.432 km
Perigee altitude
546.564 km
Semi-major axis
6,925.635 km
Eccentricity
0.00013
Inclination
53.055°
RAAN
57.5792°
Arg. of periapsis
92.4201°
True anomaly
267.67885°
Mean anomaly
267.6943°
Eccentric anomaly
267.68658°
Mean motion
3.76577 °/min
Orbital period
95.6 mins
BSTAR
0.00012655
Loading maneuver chart data...
Computing Atmospheric mass density...
Loading historical data...
Loading historical data...
Loading historical data...
Loading historical data...
Loading historical data...
Loading historical data...
Loading historical data...

Documentation

Showing up to 5 results
|